ATLAS 5 CENTAUR DEB, 46485

Orbit data source: Space-Track

ATLAS 5 CENTAUR DEB, 46485 is space debris in HEO originally from a launch on Wed, 17 Oct 2018 UTC launched from the Air Force Eastern Test Range (AFETR). Debris objects in space refer to the collection of defunct objects orbiting the Earth. Examples of debris include non-operational satellites, rocket bodies, and fragments generated from explosions, collisions, or faulty payload assembly.

Loading next visibility...
ATLAS 5 CENTAUR DEB details
Identifier
46485, 2018-079BY
Orbit
HEO
Last TLE update15 hours ago
Origin
Flag of USULA (US)
ManufacturerULA Decatur
MissionSpacecraft
Bus & MotorUnknown
MassUnknown
Launch date (UTC)
2018-10-17 (6 years ago)
Launch vehicleUnknown
Launch site
Air Force Eastern Test Range (AFETR)
Object type
Payload
Rocket body
Debris
Shape & HBRUnknown
Radar Cross SectionRCS unknown

Expand to show TLE details & history

TLE from 15 hours ago
0 ATLAS 5 CENTAUR DEB
1 46485U 18079BY  24336.73691104 -.00000062  00000-0  00000-0 0  9990
2 46485  12.9703  41.3224 4459623 308.1165  19.4928  2.01381413 22510
Epoch: 2024-12-01T17:41Z
Definitive object data (Epoch: 2024-12-01T17:41:09.113Z)
Latitude0.00001°
Longitude64.8961°
Altitude10,281.631 km
Speed5.727 km/s
True Right ascension02h 45m 01s
True Declination0° 00' 00"
Sunlit
Object was in daylight at TLE epoch
Visualization TLE readout
Latitude12.85034°
Longitude163.61961°
Altitude28,228.736 km
Speed2.827 km/s
Apparent Right ascension09h 44m 42s
Apparent Declination6° 48' 49"
Sunlit
Object is in daylight
Visualization observer readout
Local Sidereal Time06:32:30
Azimuth114.395° SE
Elevation35.819°
Doppler factor1
Orbital elements
Apogee altitude31,926.202 km
Perigee altitude8,298.627 km
Semi-major axis26,490.551 km
Eccentricity0.4459623
Inclination12.9703°
RAAN41.3224°
Arg. of periapsis308.1165°
True anomaly52.07621°
Mean anomaly19.4928°
Eccentric anomaly33.65238°
Mean motion0.50339 °/min
BSTARUnknown
Orbital period715.15 mins
Loading maneuver chart data...

ATLAS 5 CENTAUR DEB Visibility forecast

Observer location: undefined°, undefined

Span
Click to sort rows by Start time (UTC) header in descending order
Start Az.
Max El. time (UTC)
Max El. Az.
Max El.
End time (UTC)
End Az.
381 mins2024-12-02 08:46:13.179Z114.418° SE2024-12-02 10:56:13.179Z119.083° SE30.524°2024-12-02 15:07:13.179Z121.888° SE
223 mins2024-12-03 05:03:13.179Z218.733° SW2024-12-03 06:08:13.179Z146.761° SSE33.068°2024-12-03 08:46:13.179Z112.895° SE
|